Pleasantville, NJ

9:02 PM EST on December 05, 2016 (GMT -0500)
Atlantic City International

Weather History for KACY - April, 2013

Change the Weather History Date:

Thursday, April 18, 2013

  Actual Average Record
Temperature  
Mean Temperature 54 °F 53 °F  
Max Temperature 64 °F 63 °F 87 °F (2002)
Min Temperature 43 °F 43 °F 25 °F (1875)
Degree Days  
Heating Degree Days 11 13  
Month to date heating degree days 248 277  
Since 1 July heating degree days 4470 4574  
Cooling Degree Days 0 0  
Month to date cooling degree days 15 0  
Year to date cooling degree days 15 0  
Growing Degree Days 4 (Base 50)    
Moisture  
Dew Point 51 °F    
Average Humidity 79    
Maximum Humidity 93    
Minimum Humidity 64    
Precipitation  
Precipitation 0.00 in 0.12 in 1.69 in (1924)
Month to date precipitation 1.43 2.33  
Year to date precipitation 13.55 12.63  
Snow  
Snow 0.00 in 0.00 in T in (2001)
Month to date snowfall 0.0 0.2  
Since 1 July snowfall 14.6 16.4  
Snow Depth 0.00 in    
Sea Level Pressure  
Sea Level Pressure 30.24 in    
Wind  
Wind Speed 10 mph (SE)    
Max Wind Speed 17 mph    
Max Gust Speed 22 mph    
Visibility 9 miles    
Events      
T = Trace of Precipitation, MM = Missing Value Source: NWS Daily Summary

Daily Weather History Graph

Daily Weather History Graph

Search for Another Location

Airport or City:

Trip Planner

Search our weather history database for the weather conditions in past years. The results will help you decide how hot, cold, wet, or windy it might be!

Date:

Astronomy

Apr. 18, 2013 Rise Set
Actual Time 6:16 AM EDT 7:39 PM EDT
Civil Twilight 5:48 AM EDT 8:07 PM EDT
Nautical Twilight 5:14 AM EDT 8:41 PM EDT
Astronomical Twilight 4:39 AM EDT 9:16 PM EDT
Moon 12:26 PM EDT (4/18) 1:52 AM EDT (4/18)
Length of Visible Light 14h 18m
Length of Day
13h 22m
First Quarter, 51% of the Moon is Illuminated
Apr 18
First Quarter
Apr 25
Full
May 2
Last Quarter
May 9
New
May 18
First Quarter

Hourly Weather History & Observations

Time (EDT) Temp. Dew Point Humidity Pressure Visibility Wind Dir Wind Speed Gust Speed Precip Events Conditions
12:54 AM 48.0 °F 39.0 °F 71% 30.29 in 10.0 mi Calm Calm - N/A   Clear
1:54 AM 46.0 °F 37.9 °F 73% 30.29 in 10.0 mi Calm Calm - N/A   Clear
2:54 AM 48.0 °F 42.1 °F 80% 30.28 in 10.0 mi East 5.8 mph - N/A   Mostly Cloudy
3:54 AM 50.0 °F 44.1 °F 80% 30.27 in 10.0 mi ESE 9.2 mph - N/A   Mostly Cloudy
4:54 AM 51.1 °F 46.0 °F 83% 30.29 in 10.0 mi East 5.8 mph - N/A   Overcast
5:54 AM 52.0 °F 48.0 °F 86% 30.28 in 10.0 mi East 10.4 mph - N/A   Overcast
6:13 AM 53.1 °F 48.9 °F 86% 30.28 in 10.0 mi ESE 10.4 mph - N/A   Overcast
6:54 AM 53.1 °F 48.9 °F 86% 30.29 in 10.0 mi ESE 10.4 mph - N/A   Overcast
7:54 AM 54.0 °F 50.0 °F 86% 30.29 in 10.0 mi ESE 10.4 mph - N/A   Overcast
8:29 AM 55.9 °F 51.1 °F 84% 30.30 in 10.0 mi ESE 9.2 mph - N/A   Mostly Cloudy
8:54 AM 57.0 °F 51.1 °F 81% 30.31 in 10.0 mi ESE 10.4 mph 20.7 mph N/A   Overcast
9:54 AM 57.0 °F 50.0 °F 77% 30.31 in 10.0 mi East 11.5 mph - N/A   Overcast
10:14 AM 57.0 °F 50.0 °F 77% 30.32 in 10.0 mi ESE 10.4 mph - N/A   Overcast
10:54 AM 57.9 °F 48.0 °F 70% 30.31 in 10.0 mi ESE 13.8 mph - N/A   Scattered Clouds
11:43 AM 61.0 °F 48.9 °F 64% 30.31 in 10.0 mi SE 12.7 mph 17.3 mph N/A   Overcast
11:54 AM 61.0 °F 48.9 °F 64% 30.31 in 10.0 mi SSE 11.5 mph - N/A   Overcast
12:54 PM 60.1 °F 52.0 °F 75% 30.28 in 10.0 mi SE 10.4 mph - N/A   Overcast
1:54 PM 60.1 °F 52.0 °F 75% 30.26 in 10.0 mi SE 11.5 mph - N/A   Overcast
2:54 PM 60.1 °F 53.1 °F 78% 30.25 in 10.0 mi ESE 9.2 mph - N/A   Overcast
3:54 PM 61.0 °F 54.0 °F 78% 30.23 in 10.0 mi SE 11.5 mph - N/A   Overcast
4:42 PM 63.0 °F 55.0 °F 75% 30.21 in 10.0 mi SE 10.4 mph - N/A   Mostly Cloudy
4:54 PM 63.0 °F 55.0 °F 75% 30.20 in 10.0 mi SE 13.8 mph - N/A   Scattered Clouds
5:54 PM 61.0 °F 55.0 °F 81% 30.19 in 10.0 mi SSE 11.5 mph - N/A   Mostly Cloudy
6:54 PM 59.0 °F 55.0 °F 87% 30.17 in 10.0 mi SSE 11.5 mph - N/A   Partly Cloudy
7:40 PM 57.9 °F 54.0 °F 87% 30.17 in 10.0 mi South 9.2 mph - N/A   Mostly Cloudy
7:54 PM 57.9 °F 55.0 °F 90% 30.17 in 10.0 mi SSE 8.1 mph - N/A   Overcast
8:05 PM 57.9 °F 55.0 °F 90% 30.17 in 10.0 mi SSE 6.9 mph - N/A   Overcast
8:54 PM 57.9 °F 55.9 °F 93% 30.16 in 3.0 mi SSE 9.2 mph - N/A   Overcast
9:30 PM 59.0 °F 57.0 °F 93% 30.16 in 3.0 mi SSE 5.8 mph - N/A   Mostly Cloudy
9:51 PM 59.0 °F 55.4 °F 88% 30.15 in 3.0 mi South 5.8 mph - N/A   Mostly Cloudy
9:54 PM 59.0 °F 55.9 °F 90% 30.15 in 3.0 mi South 6.9 mph - N/A   Overcast
10:12 PM 59.0 °F 55.9 °F 90% 30.14 in 10.0 mi South 8.1 mph - N/A   Mostly Cloudy
10:20 PM 57.9 °F 55.9 °F 93% 30.14 in 10.0 mi South 6.9 mph - N/A   Scattered Clouds
10:54 PM 57.9 °F 55.0 °F 90% 30.13 in 10.0 mi South 8.1 mph - N/A   Clear
11:54 PM 57.9 °F 55.0 °F 90% 30.11 in 10.0 mi SSE 12.7 mph - N/A   Clear